{"data":{"norad_id":67581,"intl_designator":"2026-016W","name":"STARLINK-36632","alt_names":[],"object_type":"PAYLOAD","status":"ACTIVE","operator":null,"country":"US","launch_date":"2026-01-25","launch_site_code":"AFWTR","launch_vehicle":null,"mission":null,"orbit_class":"UNKNOWN","rcs_meters":null,"size_class":null,"mass_kg":null,"dimensions":null,"purposes":["comms"],"wikipedia_slug":null,"has_3d_model":false,"image_url":null,"decayed_at":null,"tle_current":{"epoch":"2026-09-19T09:50:38.997312Z","epoch_age_seconds":166476,"freshness":"FRESH","line1":"1 67581U 26016W   26262.41017358  .00011147  00000+0  34702-3 0  9991","line2":"2 67581  97.2860 321.0924 0001545  91.8655 268.2765 15.33451260 36556","mean_motion":15.3345126,"eccentricity":0.0001545,"inclination_deg":97.286,"raan_deg":321.0924,"arg_perigee_deg":91.8655,"mean_anomaly_deg":268.2765,"bstar":0.00034702,"rev_number":3655,"period_min":93.90582130403,"perigee_km":464.46720347643,"apogee_km":466.58189489513,"semimajor_km":6843.6615491858,"source":"CELESTRAK","updated_at":"2026-09-20T09:00:43.578657Z"}}}